This demonstration page uses our WeatherBlox Daily Observations layout. Learn more.

Left ArrowRight Arrow

Hourly Observations for June 29, 2015

Temp ( °F °C ) Dew Point ( °F °C ) Humidity (%) Winds ( mph kmh ) Pressure ( in mb ) Visibility ( mi km ) Precip ( " mm )
12:51 am 00:51 Clear 69 20.6 63 17.2 81 81 NE 6 9 29.85 1011 10 16 0.00 0.00
1:51 am 01:51 Clear 69 20.6 62 16.7 78 78 Calm 29.84 1010 10 16 0.00 0.00
2:51 am 02:51 Clear 67 19.4 62 16.7 84 84 Calm 29.77 1008 10 16 0.00 0.00
3:51 am 03:51 Clear 66 18.9 63 17.2 90 90 N 6 9 29.84 1011 10 16 0.00 0.00
4:51 am 04:51 Clear 65 18.3 61 16.1 87 87 SE 3 6 29.90 1012 10 16 0.00 0.00
5:51 am 05:51 Sunny 68 20 61 16.1 78 78 ENE 6 9 29.90 1013 10 16 0.00 0.00
6:51 am 06:51 Sunny 73 22.8 62 16.7 69 69 S 5 7 29.91 1013 10 16 0.00 0.00
7:51 am 07:51 Sunny 80 26.7 58 14.4 47 47 ESE 10 17 29.91 1013 10 16 0.00 0.00
8:51 am 08:51 Sunny 85 29.4 55 12.8 36 36 E 5 7 29.89 1012 10 16 0.00 0.00
9:51 am 09:51 Sunny 89 31.7 53 11.7 29 29 ESE 8 13 29.88 1012 10 16 0.00 0.00
10:51 am 10:51 Sunny 93 33.9 54 12.2 27 27 VRB 6 9 29.86 1011 10 16 0.00 0.00
11:51 am 11:51 Sunny 95 35 53 11.7 24 24 VRB 5 7 29.84 1010 10 16 0.00 0.00
12:51 pm 12:51 Sunny 99 37.2 51 10.6 20 20 VRB 5 7 29.80 1009 10 16 0.00 0.00
1:51 pm 13:51 Sunny 100 37.8 47 8.3 16 16 VRB 3 6 29.77 1008 10 16 0.00 0.00
2:51 pm 14:51 Sunny 99 37.2 46 7.8 16 16 VRB 5 7 29.75 1008 10 16 0.00 0.00
3:51 pm 15:51 Sunny 100 37.8 47 8.3 16 16 undefined N/A 29.74 1007 10 16 0.00 0.00
4:51 pm 16:51 Sunny 97 36.1 49 9.4 20 20 NE 12 19 29.73 1007 10 16 0.00 0.00
5:51 pm 17:51 Sunny 84 28.9 75 23.9 74 74 ENE 14 22 29.93 1013 10 16 0.00 0.00
6:51 pm 18:51 Sunny 93 33.9 52 11.1 25 25 E 8 13 29.73 1007 10 16 0.00 0.00
7:51 pm 19:51 Clear 88 31.1 55 12.8 33 33 S 5 7 29.74 1007 10 16 0.00 0.00
8:51 pm 20:51 Clear 84 28.9 59 15 43 43 N 6 9 29.75 1008 10 16 0.00 0.00
9:51 pm 21:51 Clear 83 28.3 59 15 44 44 NW 3 6 29.78 1009 10 16 0.00 0.00
10:51 pm 22:51 Clear 83 28.3 57 13.9 41 41 S 3 6 29.78 1008 10 16 0.00 0.00
11:51 pm 23:51 Clear 79 26.1 59 15 50 50 N 3 6 29.78 1008 10 16 0.00 0.00

Powered by AerisWeather